Location: Newark
(44.2003°N, 3.2583°E)
Time: 08:44:39
(UTC+00:00)

STARLINK-1662 - Pass Details

Date: 26 September 2020
Orbit: 378 x 381 km, 53.0° (Epoch: 29 October)

Event Time Altitude Azimuth Distance (km) Brightness Sun altitude
Exits shadow 02:50:19 11° 40° (NE) 1,352 6.4 -29.8°
Drops below altitude 10° 02:50:29 10° 43° (NE) 1,395 6.5 -29.7°
Enters shadow 03:48:15 -68° 276° (W) 12,198 10.4 -20.4°
Maximum altitude 04:24:57 29° 22° (NNE) 734 4.6 -14.0°
